Location: Brede
(50.9167°N, 0.6000°E)
Time: 19:33:25
(UTC+00:00)

Vanguard 1 Rocket - Pass Details

Date: 02 December 2020
Orbit: 655 x 4221 km, 34.3° (Epoch: 17 January)

Event Time Altitude Azimuth Distance (km) Brightness Sun altitude
Exits shadow 06:44:24 - 274° (W) 7,359 11.4 -8.4°
Reaches altitude 10° 06:49:10 10° 266° (W) 6,406 11.2 -7.8°
Maximum altitude 07:01:00 21° 227° (SW) 4,404 10.7 -6.1°
Drops below altitude 10° 07:09:12 10° 184° (S) 4,256 11.2 -5.0°
Sets 07:13:01 0° 168° (SSE) 4,747 11.8 -4.4°
